Weather History for Farmington, MO

Change the Weather History Date:

Wednesday, March 13, 2013

  Actual Average Record
Temperature  
Mean Temperature 33 °F -  
Max Temperature 42 °F 51 °F 80 °F (2012)
Min Temperature 24 °F 32 °F 23 °F (2009)
Degree Days  
Heating Degree Days 32    
Moisture  
Dew Point 17 °F    
Average Humidity 51    
Maximum Humidity 80    
Minimum Humidity 31    
Precipitation  
Precipitation 0.00 in - - ()
Sea Level Pressure  
Sea Level Pressure 30.35 in    
Wind  
Wind Speed 10 mph (WNW)    
Max Wind Speed 18 mph    
Max Gust Speed 24 mph    
Visibility 10 miles    
Events      
Averages and records for this station are not official NWS values.
T = Trace of Precipitation, MM = Missing Value Source: NWS Daily Summary

Daily Weather History Graph

Daily Weather History Graph

Search for Another Location

Airport:

Trip Planner

Search our weather history database for the weather conditions in past years. The results will help you decide how hot, cold, wet, or windy it might be!

Date:

Astronomy

Mar. 13, 2013 Rise Set
Actual Time 7:15 AM CDT 7:07 PM CDT
Civil Twilight 6:49 AM CDT 7:33 PM CDT
Nautical Twilight 6:18 AM CDT 8:03 PM CDT
Astronomical Twilight 5:48 AM CDT 8:34 PM CDT
Moon 7:57 AM CDT (3/13) 9:20 PM CDT (3/13)
Length of Visible Light 12h 44m
Length of Day
11h 51m
Waxing Crescent, 4% of the Moon is Illuminated
Mar 13
Waxing Crescent
Mar 19
First Quarter
Mar 27
Full
Apr 2
Last Quarter
Apr 10
New

Hourly Weather History & Observations

Time (CDT) Temp. Windchill Dew Point Humidity Pressure Visibility Wind Dir Wind Speed Gust Speed Precip Events Conditions
12:55 AM 33.8 °F 25.8 °F 21.2 °F 60% 30.23 in 10.0 mi WNW 10.4 mph 19.6 mph N/A   Clear
1:15 AM 33.8 °F 25.8 °F 21.2 °F 60% 30.23 in 10.0 mi WNW 10.4 mph 16.1 mph N/A   Partly Cloudy
1:35 AM 33.8 °F 26.4 °F 21.2 °F 60% 30.23 in 10.0 mi WNW 9.2 mph - N/A   Mostly Cloudy
1:55 AM 33.8 °F 25.8 °F 21.2 °F 60% 30.23 in 10.0 mi WNW 10.4 mph - N/A   Overcast
2:15 AM 33.8 °F 23.5 °F 21.2 °F 60% 30.23 in 10.0 mi West 16.1 mph 19.6 mph N/A   Overcast
2:35 AM 33.8 °F 24.8 °F 17.6 °F 52% 30.23 in 10.0 mi WNW 12.7 mph 17.3 mph N/A   Overcast
2:55 AM 33.8 °F 25.3 °F 17.6 °F 52% 30.23 in 10.0 mi West 11.5 mph 20.7 mph N/A   Overcast
3:15 AM 32.0 °F 22.1 °F 19.4 °F 60% 30.23 in 10.0 mi West 13.8 mph 18.4 mph N/A   Partly Cloudy
3:55 AM 32.0 °F 21.6 °F 17.6 °F 55% 30.23 in 10.0 mi West 15.0 mph 24.2 mph N/A   Mostly Cloudy
4:15 AM 30.2 °F 18.1 °F 15.8 °F 55% 30.23 in 10.0 mi West 18.4 mph 23.0 mph N/A   Partly Cloudy
4:35 AM 30.2 °F 19.3 °F 15.8 °F 55% 30.24 in 10.0 mi West 15.0 mph 19.6 mph N/A   Clear
4:55 AM 30.2 °F 20.8 °F 15.8 °F 55% 30.25 in 10.0 mi WNW 11.5 mph 18.4 mph N/A   Clear
5:15 AM 28.4 °F 19.1 °F 15.8 °F 59% 30.25 in 10.0 mi WNW 10.4 mph - N/A   Clear
5:35 AM 28.4 °F 18.0 °F 17.6 °F 64% 30.26 in 10.0 mi WNW 12.7 mph 20.7 mph N/A   Clear
5:55 AM 28.4 °F 18.5 °F 15.8 °F 59% 30.26 in 10.0 mi WNW 11.5 mph 20.7 mph N/A   Clear
6:15 AM 28.4 °F 18.5 °F 15.8 °F 59% 30.27 in 10.0 mi West 11.5 mph 19.6 mph N/A   Clear
6:35 AM 28.4 °F 19.7 °F 17.6 °F 64% 30.27 in 10.0 mi WNW 9.2 mph 18.4 mph N/A   Clear
6:55 AM 28.4 °F 18.0 °F 17.6 °F 64% 30.28 in 10.0 mi West 12.7 mph - N/A   Clear
7:15 AM 28.4 °F 19.1 °F 17.6 °F 64% 30.29 in 10.0 mi WNW 10.4 mph 18.4 mph N/A   Partly Cloudy
7:35 AM 28.4 °F 16.6 °F 17.6 °F 64% 30.30 in 10.0 mi West 16.1 mph 20.7 mph N/A   Mostly Cloudy
7:55 AM 28.4 °F 18.0 °F 17.6 °F 64% 30.31 in 10.0 mi West 12.7 mph 19.6 mph N/A   Overcast
8:15 AM 28.4 °F 17.0 °F 17.6 °F 64% 30.32 in 10.0 mi West 15.0 mph 18.4 mph N/A   Overcast
8:35 AM 28.4 °F 17.5 °F 17.6 °F 64% 30.32 in 10.0 mi West 13.8 mph - N/A   Overcast
8:55 AM 28.4 °F 17.5 °F 17.6 °F 64% 30.33 in 10.0 mi WNW 13.8 mph 21.9 mph N/A   Overcast
9:15 AM 28.4 °F 17.0 °F 17.6 °F 64% 30.34 in 10.0 mi WNW 15.0 mph 18.4 mph N/A   Mostly Cloudy
9:35 AM 28.4 °F 17.5 °F 17.6 °F 64% 30.36 in 10.0 mi NW 13.8 mph 23.0 mph N/A   Mostly Cloudy
9:55 AM 30.2 °F 21.9 °F 17.6 °F 60% 30.36 in 10.0 mi WNW 9.2 mph 18.4 mph N/A   Mostly Cloudy
10:15 AM 30.2 °F 20.2 °F 17.6 °F 60% 30.38 in 10.0 mi NW 12.7 mph 20.7 mph N/A   Mostly Cloudy
10:35 AM 30.2 °F 20.2 °F 17.6 °F 60% 30.39 in 10.0 mi WNW 12.7 mph 20.7 mph N/A   Scattered Clouds
10:55 AM 33.8 °F 23.9 °F 15.8 °F 48% 30.39 in 10.0 mi West 15.0 mph 18.4 mph N/A   Partly Cloudy
11:15 AM 33.8 °F 24.8 °F 15.8 °F 48% 30.40 in 10.0 mi NNW 12.7 mph 17.3 mph N/A   Clear
11:35 AM 33.8 °F 25.8 °F 15.8 °F 48% 30.40 in 10.0 mi WNW 10.4 mph 20.7 mph N/A   Clear
11:55 AM 35.6 °F 29.9 °F 17.6 °F 48% 30.40 in 10.0 mi West 6.9 mph 17.3 mph N/A   Clear
12:15 PM 35.6 °F 27.1 °F 17.6 °F 48% 30.40 in 10.0 mi WNW 12.7 mph 21.9 mph N/A   Clear
12:35 PM 37.4 °F 30.3 °F 15.8 °F 41% 30.41 in 10.0 mi WNW 10.4 mph 17.3 mph N/A   Clear
12:55 PM 37.4 °F 30.3 °F 15.8 °F 41% 30.41 in 10.0 mi West 10.4 mph 20.7 mph N/A   Clear
1:15 PM 37.4 °F 28.5 °F 15.8 °F 41% 30.41 in 10.0 mi West 15.0 mph 20.7 mph N/A   Clear
1:35 PM 39.2 °F 32.0 °F 15.8 °F 39% 30.41 in 10.0 mi West 11.5 mph 19.6 mph N/A   Clear
1:55 PM 39.2 °F 32.0 °F 15.8 °F 39% 30.40 in 10.0 mi NW 11.5 mph - N/A   Clear
2:15 PM 39.2 °F 33.6 °F 17.6 °F 42% 30.40 in 10.0 mi West 8.1 mph 20.7 mph N/A   Clear
2:35 PM 41.0 °F 33.5 °F 15.8 °F 36% 30.40 in 10.0 mi WNW 13.8 mph 17.3 mph N/A   Clear
2:55 PM 41.0 °F 34.7 °F 15.8 °F 36% 30.40 in 10.0 mi WNW 10.4 mph 18.4 mph N/A   Clear
3:15 PM 41.0 °F 34.7 °F 15.8 °F 36% 30.39 in 10.0 mi NW 10.4 mph 17.3 mph N/A   Clear
3:35 PM 42.8 °F 37.0 °F 15.8 °F 34% 30.39 in 10.0 mi WNW 10.4 mph 16.1 mph N/A   Clear
3:55 PM 42.8 °F 37.0 °F 15.8 °F 34% 30.39 in 10.0 mi NNW 10.4 mph 18.4 mph N/A   Clear
4:15 PM 42.8 °F 36.6 °F 15.8 °F 34% 30.39 in 10.0 mi NNW 11.5 mph 19.6 mph N/A   Clear
4:35 PM 42.8 °F 37.0 °F 14.0 °F 31% 30.38 in 10.0 mi NW 10.4 mph - N/A   Clear
4:55 PM 42.8 °F 39.3 °F 15.8 °F 34% 30.38 in 10.0 mi NNW 5.8 mph - N/A   Clear
5:15 PM 42.8 °F 38.6 °F 15.8 °F 34% 30.38 in 10.0 mi North 6.9 mph - N/A   Clear
5:35 PM 42.8 °F 37.5 °F 15.8 °F 34% 30.38 in 10.0 mi WNW 9.2 mph - N/A   Clear
5:55 PM 42.8 °F 37.0 °F 14.0 °F 31% 30.38 in 10.0 mi NW 10.4 mph - N/A   Clear
6:15 PM 41.0 °F 36.4 °F 14.0 °F 33% 30.38 in 10.0 mi North 6.9 mph - N/A   Clear
6:35 PM 41.0 °F 36.4 °F 12.2 °F 31% 30.38 in 10.0 mi NW 6.9 mph - N/A   Clear
6:55 PM 39.2 °F 33.6 °F 14.0 °F 36% 30.38 in 10.0 mi NNW 8.1 mph - N/A   Clear
7:15 PM 37.4 °F 33.8 °F 12.2 °F 36% 30.39 in 10.0 mi North 4.6 mph - N/A   Clear
7:35 PM 37.4 °F 34.9 °F 12.2 °F 36% 30.39 in 10.0 mi North 3.5 mph - N/A   Clear
7:55 PM 37.4 °F 34.9 °F 12.2 °F 36% 30.39 in 10.0 mi North 3.5 mph - N/A   Clear
8:15 PM 35.6 °F 32.8 °F 14.0 °F 41% 30.39 in 10.0 mi North 3.5 mph - N/A   Clear
8:35 PM 33.8 °F - 12.2 °F 41% 30.40 in 10.0 mi Calm Calm - N/A   Clear
8:55 PM 32.0 °F - 17.6 °F 55% 30.40 in 10.0 mi Calm Calm - N/A   Clear
9:15 PM 32.0 °F - 15.8 °F 51% 30.40 in 10.0 mi Calm Calm - N/A   Clear
9:35 PM 30.2 °F - 15.8 °F 55% 30.41 in 10.0 mi Calm Calm - N/A   Clear
9:55 PM 30.2 °F - 17.6 °F 60% 30.40 in 10.0 mi Calm Calm - N/A   Clear
10:15 PM 28.4 °F - 19.4 °F 69% 30.40 in 10.0 mi Calm Calm - N/A   Clear
10:35 PM 28.4 °F - 19.4 °F 69% 30.41 in 10.0 mi Calm Calm - N/A   Clear
10:55 PM 28.4 °F - 19.4 °F 69% 30.40 in 10.0 mi Calm Calm - N/A   Clear
11:15 PM 26.6 °F - 15.8 °F 64% 30.41 in 10.0 mi Calm Calm - N/A   Clear
11:35 PM 24.8 °F - 19.4 °F 80% 30.41 in 10.0 mi Calm Calm - N/A   Clear
11:55 PM 24.8 °F - 19.4 °F 80% 30.41 in 10.0 mi Calm Calm - N/A   Clear